Flag for South Korea Weather past 2 weeks in Incheon, South Korea

Now
72 °F

Sunny.


Feels Like: 77 °F
Forecast: 61 / 78 °F
Wind: 1 mph from Northwest

Location: Incheon International Airport

Current Time: Sep 18, 2014 at 3:15:28 PM

Latest Report: Sep 18, 2014 at 2:30 PM


Visibility: 10 mi

Pressure: 30.04 "Hg

Humidity: 50%

Dew point: 52 °F

Location of IncheonLocation

Historic Weather in Incheon — Graph

°F

Incheon temperature yesterday

Maximum temperature yesterday: 73 °F (at 4:30 PM)
Minimum temperature yesterday: 64 °F (at 3:30 AM)
Average temperature yesterday: 68 °F

Past Weeks' High & Low Weather Summary

 TemperatureHumidityPressure
High81 °F (Sep 6, 10:30 AM)94% (Sep 3, 3:00 PM)30.09 "Hg (Sep 3, 3:00 PM)
Low61 °F (Sep 18, 4:30 AM)16% (Sep 16, 4:00 PM)29.56 "Hg (Sep 3, 2:00 PM)
Average72 °F65%29.89 "Hg
* Reported Sep 3 2:00 PM — Sep 18 2:00 PM, Incheon, Weather by CustomWeather, © 2014

Note: Actual official high and low records may vary slightly from our data, if they occured in-between our weather recording intervals... More about our weather records

Advertising

Incheon weather history for previous 24 hours

 ConditionsComfort  
Time TempWeatherWind HumidityBarometerVisibility
2:00 PM
Sep 18
72 °FSunny.5 mph53%30.04 "Hg10 mi
1:30 PM72 °FSunny.8 mph53%30.07 "Hg10 mi
1:00 PM72 °FSunny.8 mph47%30.07 "Hg10 mi
12:30 PM72 °FSunny.8 mph47%30.07 "Hg10 mi
11:30 AM70 °FSunny.9 mph57%30.09 "Hg10 mi
11:00 AM68 °FSunny.10 mph60%30.09 "Hg10 mi
10:30 AM68 °FSunny.8 mph56%30.09 "Hg10 mi
10:00 AM66 °FSunny.9 mph60%30.09 "Hg10 mi
9:30 AM66 °FSunny.9 mph60%30.09 "Hg10 mi
9:00 AM64 °FSunny.9 mph64%30.09 "Hg10 mi
8:30 AM63 °FSunny.9 mph68%30.09 "Hg10 mi
8:00 AM63 °FSunny.10 mph68%30.09 "Hg10 mi
7:30 AM61 °FSunny.7 mph72%30.07 "Hg10 mi
7:00 AM61 °FClear.8 mph72%30.07 "Hg10 mi
6:30 AM61 °FClear.8 mph72%30.07 "Hg10 mi
6:00 AM61 °FClear.10 mph72%30.07 "Hg10 mi
5:30 AM61 °FClear.10 mph68%30.07 "Hg10 mi
5:00 AM61 °FClear.13 mph72%30.04 "Hg10 mi
4:30 AM61 °FClear.10 mph72%30.04 "Hg10 mi
4:00 AM63 °FClear.9 mph68%30.04 "Hg10 mi
3:30 AM63 °FClear.13 mph68%30.04 "Hg10 mi
3:00 AM63 °FClear.14 mph68%30.04 "Hg10 mi
2:30 AM63 °FClear.10 mph73%30.04 "Hg10 mi
2:00 AM64 °FClear.13 mph68%30.04 "Hg10 mi
1:30 AM64 °FClear.13 mph68%30.04 "Hg10 mi
1:00 AM64 °FClear.12 mph68%30.04 "Hg10 mi
12:30 AM64 °FClear.10 mph73%30.04 "Hg10 mi
12:00 AM64 °FClear.13 mph73%30.04 "Hg10 mi
11:30 PM
Sep 17
64 °FClear.9 mph73%30.04 "Hg10 mi
11:00 PM64 °FClear.7 mph73%30.04 "Hg10 mi
10:30 PM66 °FClear.6 mph73%30.04 "Hg10 mi
10:00 PM66 °FClear.2 mph68%30.04 "Hg10 mi
9:30 PM68 °FClear.3 mph60%30.04 "Hg10 mi
9:00 PM68 °FClear.3 mph60%30.04 "Hg10 mi
8:30 PM70 °FClear.3 mph53%30.01 "Hg10 mi
8:00 PM70 °FClear.3 mph50%30.01 "Hg10 mi
7:30 PM70 °FSunny.3 mph50%30.01 "Hg10 mi
7:00 PM70 °FSunny.5 mph46%30.01 "Hg10 mi
6:30 PM70 °FSunny.6 mph46%30.01 "Hg10 mi
6:00 PM72 °FSunny.6 mph44%30.01 "Hg10 mi
5:30 PM72 °FSunny.3 mph41%29.98 "Hg10 mi
5:00 PM73 °FSunny.5 mph38%29.98 "Hg10 mi
4:30 PM73 °FPartly sunny.5 mph33%29.98 "HgN/A
4:00 PM72 °FPartly sunny.5 mph41%30.01 "HgN/A
3:30 PM72 °FPartly sunny.5 mph38%30.01 "HgN/A
3:00 PM72 °FPartly sunny.3 mph38%30.01 "HgN/A
Weather by CustomWeather, © 2014

See weather overviewHow to use our weather pages